[[{"header":{"parameterUnit":"m.s-1","parameterCategory":1,"la1":30.2991,"la2":30.254,"lo1":-89.0895,"lo2":-89.0444,"dy":0.0017,"dx":0.0017,"nx":28,"ny":28,"refTime":"2023-11-15T03:00:00:Z","depth":0,"parameterNumber":2,"parameterNumberName":"U-component_of_WINDS"},"data":[0,0,0,0,0,0,0,0,0,0,0,0,0,0,0,0,0,0,0,0,0,0,0,0,0,0,0,0,0,0,0,0,0,0,0,0,0,0,0,0,0,0,0,0,0,0,0,0,0,0,0,0,0,0,0,0,0,0,-3.8609,-3.861,0,-3.8699,-3.87,-3.8701,-3.8627,-3.8624,-3.8621,-3.8618,-3.8713,-3.8718,-3.8724,0,0,0,0,0,0,0,0,0,0,0,0,0,-3.8376,-3.838,-3.8609,-3.861,-3.8612,-3.8699,-3.87,-3.8702,-3.8627,-3.8624,-3.862,-3.8616,-3.8711,-3.8718,-3.8724,0,0,0,0,0,0,0,0,0,0,0,0,0,-3.8473,-3.8382,-3.8609,-3.8585,-3.8584,-3.8699,-3.8701,-3.8702,-3.8628,-3.8624,-3.8619,-3.8614,-3.8709,-3.8717,-3.8725,-3.887,0,0,-3.875,-3.8754,0,0,0,0,0,0,0,0,-3.8467,-3.8481,-3.8587,-3.8587,-3.8586,-3.8647,-3.8653,-3.8758,-3.8629,-3.8611,-3.8618,-3.8612,-3.8695,-3.8704,-3.8731,-3.8874,-3.8878,-3.8751,-3.8756,-3.8759,-3.8761,0,0,0,0,0,0,0,-3.8461,-3.8477,-3.8645,-3.8589,-3.8588,-3.8571,-3.8579,-3.8673,-3.8679,-3.8613,-3.8607,-3.8619,-3.8694,-3.8724,-3.8733,-3.888,-3.875,-3.8758,-3.8763,-3.8766,-3.9147,-3.9152,0,0,0,0,0,0,-3.8456,-3.8472,-3.8642,-3.8648,-3.8514,-3.8579,-3.8588,-3.8632,-3.8677,-3.868,-3.8623,-3.8615,-3.8712,-3.8724,-3.8736,-3.891,-3.8759,-3.8767,-3.8771,-3.9142,-3.9149,-3.9154,0,0,0,0,0,0,-3.8451,-3.8472,-3.8638,-3.8559,-3.8578,-3.8588,-3.8638,-3.8636,-3.8666,-3.8685,-3.8686,-3.8652,-3.8709,-3.8725,-3.8837,-3.8912,-3.877,-3.8778,-3.9136,-3.9144,-3.9151,-3.9259,0,0,0,0,0,0,-3.8445,-3.8471,-3.8525,-3.856,-3.8583,-3.8738,-3.8642,-3.8642,-3.868,-3.8671,-3.8713,-3.8715,-3.8706,-3.8825,-3.8845,-3.8921,-3.8784,-3.9129,-3.914,-3.9149,-3.9248,-3.9269,-3.9287,0,0,0,0,0,-3.8437,-3.8552,-3.8528,-3.8549,-3.8651,-3.8742,-3.8755,-3.8741,-3.8687,-3.8742,-3.8754,-3.8714,-3.89,-3.8838,-3.8859,-3.8939,-3.9125,-3.9137,-3.9148,-3.924,-3.9265,-3.9286,0,0,0,0,0,0,-3.8526,-3.8556,-3.853,-3.866,-3.8699,-3.8729,-3.8799,-3.8768,-3.8824,-3.8814,-3.8795,-3.8805,-3.8924,-3.8942,-3.8872,-3.9082,-3.9004,-3.9021,-3.9066,-3.909,-3.9109,-3.9103,-3.8791,0,0,0,0,0,-3.8561,-3.8632,-3.8654,-3.8766,-3.8787,-3.879,-3.8829,-3.8815,-3.8855,-3.8871,-3.8892,-3.8933,-3.9001,-3.9046,-3.9109,-3.925,-3.9259,-3.9315,-3.9334,-3.935,-3.9365,-3.9443,-3.9469,-3.9193,-3.9193,-3.9192,0,0,-3.8634,-3.8659,-3.8705,-3.8785,-3.8813,-3.8888,-3.8804,-3.8886,-3.8942,-3.8884,-3.8992,-3.9008,-3.9053,-3.9181,-3.9238,-3.92,-3.9443,-3.9365,-3.9377,-3.9384,-3.9458,-3.9484,-3.9507,-3.9201,-3.9199,-3.9198,0,0,-3.8805,-3.883,-3.8927,-3.8957,-3.9002,-3.9002,-3.9026,-3.9061,-3.907,-3.9177,-3.9136,-3.9202,-3.9319,-3.9353,-3.9386,-3.957,-3.9536,-3.9591,-3.9692,-3.9768,-3.979,-3.9809,-3.9877,-3.9902,-3.9606,-3.9606,-3.9606,0,-3.889,-3.9,-3.8981,-3.9067,-3.9105,-3.9054,-3.9153,-3.9184,-3.9247,-3.9274,-3.923,-3.9376,-3.9403,-3.9539,-3.9584,-3.9611,-3.9639,-3.9587,-3.9788,-3.9807,-3.9825,-3.989,-3.9915,-3.9613,-3.9612,-3.9611,-3.9611,0,-3.9104,-3.9181,-3.9254,-3.9316,-3.9361,-3.9454,-3.945,-3.9498,-3.948,-3.9486,-3.9597,-3.9627,-3.9696,-3.9727,-3.971,-3.9861,-3.9836,-3.979,-3.9712,-3.9858,-3.9919,-3.9943,-3.9622,-3.962,-3.9618,-3.9616,0,0,-3.9336,-3.9385,-3.9413,-3.9441,-3.9486,-3.9546,-3.9636,-3.9703,-3.9746,-3.979,-3.9867,-3.9967,-3.9925,-3.9962,-3.9949,-4.0015,-4.0162,-3.9961,-3.9962,-4.0,-4.0333,-4.0369,-4.0398,-4.0139,-4.0143,-4.0147,-4.033,0,-3.9511,-3.9667,-3.9653,-3.9802,-3.9874,-3.9827,-3.9905,-3.9942,-3.995,-4.0013,-4.0022,-4.0094,-4.0032,-4.0055,-4.0118,-4.0131,-4.0229,-4.0117,-4.0212,-4.0216,-4.0205,-4.0429,-4.0468,-4.0639,-4.0353,-4.0357,-4.036,0,-3.9736,-3.9789,-3.9945,-3.998,-4.001,-4.0081,-4.0142,-4.0201,-4.0243,-4.0244,-4.0286,-4.0261,-4.0353,-4.0271,-4.0399,-4.0323,-4.0361,-4.0373,-4.0379,-4.039,-4.0299,-4.0448,-4.0693,-4.072,-4.0397,-4.0394,-4.0391,0,-3.9893,-4.0002,-4.011,-4.0135,-4.0178,-4.023,-4.025,-4.0286,-4.0328,-4.0381,-4.0408,-4.0471,-4.0507,-4.0557,-4.0551,-4.0491,-4.0682,-4.0599,-4.0688,-4.0688,-4.0732,-4.073,-4.0989,-4.0753,-4.0752,-4.0752,-4.0751,0,-4.0091,-4.0189,-4.0181,-4.0248,-4.0357,-4.0339,-4.0448,-4.0462,-4.0495,-4.0565,-4.0527,-4.0594,-4.058,-4.0647,-4.0642,-4.075,-4.0766,-4.0771,-4.0769,-4.0776,-4.0776,-4.0802,-4.0791,-4.0758,-4.0757,-4.0756,-4.0754,0,-4.0286,-4.0284,-4.0399,-4.043,-4.044,-4.0519,-4.0546,-4.0609,-4.0614,-4.0703,-4.0722,-4.073,-4.0807,-4.0805,-4.0892,-4.0889,-4.1022,-4.1005,-4.1009,-4.1006,-4.1096,-4.1089,-4.1384,-4.1422,-4.1158,-4.116,-4.1162,0,-4.0414,-4.0488,-4.0527,-4.057,-4.0594,-4.0664,-4.0706,-4.0692,-4.0738,-4.079,-4.0848,-4.0921,-4.0979,-4.1103,-4.1118,-4.1185,-4.1171,-4.1269,-4.1181,-4.1186,-4.1175,-4.1172,-4.118,-4.1288,-4.1291,-4.1293,-4.1295,0,-4.0642,-4.0637,-4.0699,-4.0761,-4.0812,-4.0861,-4.0905,-4.0943,-4.0933,-4.0987,-4.1064,-4.1109,-4.1197,-4.1271,-4.1335,-4.1357,-4.1326,-4.1322,-4.1347,-4.1356,-4.1356,-4.136,-4.1059,-4.1316,-4.1314,-4.1313,-4.1311,-4.1311,-4.0809,-4.0873,-4.0911,-4.0981,-4.1013,-4.1055,-4.1117,-4.1129,-4.1193,-4.1264,-4.1251,-4.1338,-4.1378,-4.1461,-4.1489,-4.1558,-4.1523,-4.1558,-4.1568,-4.1577,-4.1589,-4.1343,-4.1569,-4.1569,-4.1568,-4.1568,-4.1567,0,-4.1037,-4.1059,-4.1124,-4.1187,-4.1243,-4.1205,-4.1253,-4.1303,-4.138,-4.1419,-4.1476,-4.1566,-4.1638,-4.1657,-4.1726,-4.1778,-4.1765,-4.1797,-4.1794,-4.18,-4.1614,-4.1587,-4.1806,-4.1806,-4.1806,-4.1806,-4.1806,-4.1806,-4.1163,-4.1271,-4.1271,-4.1394,-4.1415,-4.15,-4.1531,-4.157,-4.1601,-4.1703,-4.1762,-4.1774,-4.1806,-4.1877,-4.1941,-4.1945,-4.1974,-4.2012,-4.201,-4.1837,-4.1813,-4.179,-4.1765,-4.2017,-4.2018,-4.2191,-4.2192,-4.2194]},{"header":{"parameterUnit":"m.s-1","parameterCategory":1,"la1":30.2991,"la2":30.254,"lo1":-89.0895,"lo2":-89.0444,"dy":0.0017,"dx":0.0017,"nx":28,"ny":28,"refTime":"2023-11-15T03:00:00:Z","depth":0,"parameterNumber":3,"parameterNumberName":"V-component_of_WINDS"},"data":[0,0,0,0,0,0,0,0,0,0,0,0,0,0,0,0,0,0,0,0,0,0,0,0,0,0,0,0,0,0,0,0,0,0,0,0,0,0,0,0,0,0,0,0,0,0,0,0,0,0,0,0,0,0,0,0,0,0,-4.8068,-4.8069,0,-4.8083,-4.8083,-4.8083,-4.8003,-4.8001,-4.7999,-4.7997,-4.801,-4.8013,-4.8015,0,0,0,0,0,0,0,0,0,0,0,0,0,-4.7969,-4.7971,-4.8068,-4.8069,-4.8069,-4.8083,-4.8083,-4.8083,-4.8004,-4.8001,-4.7998,-4.7996,-4.801,-4.8013,-4.8016,0,0,0,0,0,0,0,0,0,0,0,0,0,-4.8001,-4.7972,-4.8068,-4.8031,-4.8027,-4.8083,-4.8083,-4.8084,-4.8004,-4.8001,-4.7997,-4.7994,-4.8009,-4.8012,-4.8016,-4.8108,0,0,-4.8027,-4.8029,0,0,0,0,0,0,0,0,-4.7999,-4.8005,-4.8036,-4.8033,-4.803,-4.8038,-4.8053,-4.8092,-4.8005,-4.8013,-4.7997,-4.7993,-4.8022,-4.8025,-4.8035,-4.8109,-4.8109,-4.8028,-4.803,-4.8032,-4.8033,0,0,0,0,0,0,0,-4.7997,-4.8004,-4.8074,-4.8037,-4.8033,-4.8012,-4.8013,-4.806,-4.8037,-4.8012,-4.8006,-4.8009,-4.802,-4.8032,-4.8035,-4.8109,-4.8028,-4.8031,-4.8033,-4.8035,-4.8259,-4.8262,0,0,0,0,0,0,-4.8,-4.8002,-4.8074,-4.8075,-4.8006,-4.8017,-4.8018,-4.8039,-4.8036,-4.8032,-4.8012,-4.8005,-4.8027,-4.803,-4.8035,-4.8142,-4.8032,-4.8035,-4.8037,-4.8255,-4.8259,-4.8263,0,0,0,0,0,0,-4.7998,-4.8007,-4.8073,-4.8037,-4.8044,-4.8022,-4.8047,-4.8041,-4.8052,-4.8036,-4.8031,-4.8029,-4.8024,-4.803,-4.809,-4.8141,-4.8037,-4.804,-4.8251,-4.8256,-4.8261,-4.8358,0,0,0,0,0,0,-4.7996,-4.8007,-4.8043,-4.8038,-4.8046,-4.8129,-4.805,-4.8044,-4.8059,-4.8051,-4.805,-4.8047,-4.8022,-4.8085,-4.8094,-4.8145,-4.8043,-4.8246,-4.8253,-4.826,-4.835,-4.8366,-4.838,0,0,0,0,0,-4.7993,-4.8069,-4.8045,-4.8054,-4.809,-4.8132,-4.8137,-4.8107,-4.8064,-4.8099,-4.8088,-4.8047,-4.8134,-4.8092,-4.8101,-4.8154,-4.8243,-4.8251,-4.8259,-4.8343,-4.8363,-4.8379,0,0,0,0,0,0,-4.8079,-4.8068,-4.8041,-4.8118,-4.8127,-4.8119,-4.8162,-4.8129,-4.8149,-4.8141,-4.8102,-4.8103,-4.817,-4.8168,-4.8121,-4.8243,-4.8181,-4.8191,-4.8242,-4.826,-4.8275,-4.8274,-4.8046,0,0,0,0,0,-4.8108,-4.8144,-4.8131,-4.8201,-4.8206,-4.8184,-4.8201,-4.8177,-4.8185,-4.8188,-4.8182,-4.819,-4.8219,-4.8239,-4.8265,-4.8349,-4.8348,-4.839,-4.8405,-4.8417,-4.8427,-4.847,-4.8489,-4.8291,-4.8291,-4.829,0,0,-4.8166,-4.8164,-4.8189,-4.8218,-4.8222,-4.826,-4.8187,-4.823,-4.8258,-4.8194,-4.8251,-4.8247,-4.8254,-4.8327,-4.8358,-4.8327,-4.8481,-4.8427,-4.8437,-4.844,-4.8481,-4.8499,-4.8516,-4.8296,-4.8295,-4.8294,0,0,-4.8292,-4.8294,-4.8352,-4.8358,-4.8365,-4.8349,-4.8363,-4.836,-4.8355,-4.8412,-4.8365,-4.8396,-4.8448,-4.8454,-4.8464,-4.8592,-4.8555,-4.8602,-4.8679,-4.8722,-4.8738,-4.8752,-4.8797,-4.8814,-4.8611,-4.8612,-4.8612,0,-4.8364,-4.8419,-4.8386,-4.8432,-4.8446,-4.8391,-4.8448,-4.8455,-4.847,-4.8481,-4.8446,-4.8509,-4.8509,-4.8582,-4.8614,-4.8624,-4.8638,-4.8602,-4.8739,-4.8752,-4.8764,-4.8807,-4.8824,-4.8617,-4.8617,-4.8616,-4.8615,0,-4.8507,-4.8546,-4.8592,-4.8608,-4.8627,-4.8679,-4.8653,-4.8676,-4.865,-4.8638,-4.8697,-4.8695,-4.872,-4.8735,-4.8711,-4.8805,-4.8785,-4.8745,-4.8682,-4.8789,-4.8829,-4.8845,-4.8625,-4.8623,-4.8622,-4.862,0,0,-4.8688,-4.8686,-4.8703,-4.871,-4.8713,-4.8742,-4.8791,-4.8816,-4.8836,-4.8848,-4.8888,-4.8932,-4.8895,-4.8907,-4.8882,-4.892,-4.9021,-4.8874,-4.8874,-4.8902,-4.9125,-4.9155,-4.9175,-4.8996,-4.8999,-4.9002,-4.9124,0,-4.8812,-4.8896,-4.8867,-4.8953,-4.8988,-4.8935,-4.8978,-4.8984,-4.8974,-4.9002,-4.899,-4.9023,-4.8971,-4.8977,-4.9012,-4.9001,-4.9065,-4.8992,-4.9033,-4.9035,-4.9033,-4.9196,-4.9228,-4.9344,-4.9139,-4.9142,-4.9144,0,-4.8967,-4.8985,-4.9075,-4.9072,-4.9085,-4.9124,-4.9144,-4.9172,-4.9178,-4.9167,-4.918,-4.9148,-4.9195,-4.9132,-4.9196,-4.9147,-4.9162,-4.9159,-4.9163,-4.9166,-4.9096,-4.9203,-4.938,-4.9398,-4.9168,-4.9166,-4.9164,0,-4.909,-4.9138,-4.9197,-4.9204,-4.9202,-4.9231,-4.9231,-4.9233,-4.925,-4.9267,-4.9277,-4.9299,-4.9312,-4.933,-4.9304,-4.926,-4.9372,-4.9307,-4.9364,-4.9365,-4.939,-4.9389,-4.9573,-4.94,-4.94,-4.9399,-4.9399,0,-4.9231,-4.9288,-4.9253,-4.9289,-4.9351,-4.9317,-4.9378,-4.9373,-4.9375,-4.9409,-4.9365,-4.9398,-4.9361,-4.9391,-4.937,-4.9427,-4.9432,-4.9425,-4.9419,-4.943,-4.9431,-4.9439,-4.943,-4.9404,-4.9403,-4.9402,-4.9401,0,-4.938,-4.9359,-4.942,-4.9413,-4.9412,-4.9458,-4.9452,-4.9485,-4.9471,-4.9515,-4.9523,-4.9502,-4.9534,-4.9509,-4.9541,-4.9527,-4.9602,-4.9584,-4.96,-4.9595,-4.9654,-4.9649,-4.985,-4.9875,-4.9686,-4.9688,-4.9689,0,-4.9472,-4.9514,-4.9511,-4.9531,-4.9534,-4.9567,-4.9583,-4.9551,-4.957,-4.958,-4.9612,-4.964,-4.9661,-4.9715,-4.9702,-4.9725,-4.9708,-4.9777,-4.9712,-4.972,-4.9709,-4.9707,-4.9711,-4.979,-4.9793,-4.9794,-4.9796,0,-4.9636,-4.9623,-4.9649,-4.9671,-4.9692,-4.9708,-4.972,-4.9739,-4.9706,-4.9729,-4.9762,-4.9778,-4.981,-4.9839,-4.9858,-4.9857,-4.9822,-4.9816,-4.9831,-4.9842,-4.985,-4.9847,-4.9636,-4.9812,-4.981,-4.9809,-4.9808,-4.9808,-4.9759,-4.9794,-4.9798,-4.9828,-4.9833,-4.9846,-4.9877,-4.9867,-4.9893,-4.9917,-4.9896,-4.9935,-4.9939,-4.9961,-4.9965,-4.9995,-4.9966,-4.9988,-4.9993,-4.9999,-5.0007,-4.9845,-4.9998,-4.9998,-4.9997,-4.9997,-4.9996,0,-4.9922,-4.9921,-4.9949,-4.9967,-4.9991,-4.9955,-4.9966,-4.9988,-5.0023,-5.003,-5.0052,-5.0089,-5.0116,-5.0105,-5.0129,-5.0155,-5.0139,-5.0162,-5.016,-5.0161,-5.0031,-5.0016,-5.0175,-5.0175,-5.0175,-5.0175,-5.0175,-5.0175,-5.0009,-5.0066,-5.0054,-5.0113,-5.0112,-5.015,-5.016,-5.0171,-5.0176,-5.022,-5.0242,-5.0235,-5.0234,-5.0258,-5.0281,-5.0277,-5.0288,-5.0318,-5.0308,-5.0187,-5.017,-5.0153,-5.0139,-5.032,-5.0321,-5.0435,-5.0436,-5.0437]}]]